This is the latest recevied weather packets stored in our database for station/object KO4IDC-13. If no packets are shown the sender has not sent any weather packets the latest 10 day(s).
| Time | Temp. | Humidity | Pressure | Rain* | Wind** | Luminosity | Snow |
|---|---|---|---|---|---|---|---|
| 1777505611 | 18.89° C | 53% | 1016.2 hPa | 0 mm | - | 38 W/m² | - |
| 1777503487 | 18.89° C | 52% | 1016.3 hPa | 0 mm | - | 98 W/m² | - |
| 1777502578 | 18.89° C | 53% | 1016.2 hPa | 0 mm | - | 141 W/m² | - |
| 1777502275 | 18.89° C | 54% | 1016.3 hPa | 0 mm | - | 156 W/m² | - |
| 1777501971 | 18.89° C | 53% | 1016.2 hPa | 0 mm | - | 151 W/m² | - |
| 1777501365 | 18.33° C | 55% | 1016 hPa | 0 mm | - | 225 W/m² | - |
| 1777501063 | 17.78° C | 56% | 1016.2 hPa | 0 mm | - | 183 W/m² | - |
| 1777500761 | 18.33° C | 57% | 1016.3 hPa | 0 mm | - | 75 W/m² | - |
| 1777500458 | 18.33° C | 56% | 1016 hPa | 0 mm | - | 130 W/m² | - |
| 1777500153 | 18.33° C | 58% | 1016 hPa | 0 mm | - | 252 W/m² | - |
| 1777499547 | 18.89° C | 56% | 1016.1 hPa | 0 mm | - | 288 W/m² | - |
| 1777498942 | 19.44° C | 56% | 1016.2 hPa | 0 mm | - | 313 W/m² | - |
| 1777498638 | 19.44° C | 56% | 1016.1 hPa | 0 mm | - | 315 W/m² | - |
| 1777498334 | 19.44° C | 57% | 1016 hPa | 0 mm | - | 356 W/m² | - |
| 1777498033 | 18.89° C | 57% | 1016 hPa | 0 mm | - | 288 W/m² | - |
| 1777497729 | 18.33° C | 57% | 1016.1 hPa | 0 mm | - | 244 W/m² | - |
| 1777496211 | 20° C | 57% | 1016.3 hPa | 0 mm | - | 226 W/m² | - |
| 1777494087 | 18.89° C | 57% | 1016.6 hPa | 0 mm | - | 606 W/m² | - |
| 1777490449 | 20° C | 59% | 1016.4 hPa | 0 mm | - | 224 W/m² | - |
| 1777490145 | 20° C | 57% | 1016.5 hPa | 0 mm | - | 272 W/m² | - |
| 1777487119 | 19.44° C | 64% | 1016.3 hPa | 0 mm | - | 499 W/m² | - |
| 1777485298 | 19.44° C | 65% | 1016.5 hPa | 0 mm | - | 291 W/m² | - |
| 1777484692 | 18.89° C | 67% | 1016.6 hPa | 0 mm | - | 199 W/m² | - |
| 1777482565 | 19.44° C | 67% | 1016.7 hPa | 0 mm | - | 338 W/m² | - |
| 1777480747 | 17.78° C | 73% | 1016.6 hPa | 0 mm | - | 314 W/m² | - |
* Rain latest hour (hover to see other rain measurements)
** Current wind speed in m/s (hover to see current wind gust speed)